[[{"header":{"parameterUnit":"m.s-1","parameterCategory":2,"la1":30.2991,"la2":30.254,"lo1":-89.0895,"lo2":-89.0444,"dy":0.0017,"dx":0.0017,"nx":28,"ny":28,"refTime":"2023-08-18T21:00:00:Z","depth":"0","parameterNumber":2,"parameterNumberName":"U-component_of_CURRENTS"},"data":[0,0,0,0,0,0,0,0,0,0,0,0,0,0,0,0,0,0,0,0,0,0,0,0,0,0,0,0,0,0,0,0,0,0,0,0,0,0,0,0,0,0,0,0,0,0,0,0,0,0,0,0,0,0,0,0,0,0,0.3476,0.3475,0,0.3343,0.3342,0.334,0.3267,0.3267,0.3267,0.3267,0.3142,0.3139,0.3136,0,0,0,0,0,0,0,0,0,0,0,0,0,0.3546,0.3546,0.3477,0.3475,0.3473,0.3343,0.3341,0.334,0.3267,0.3267,0.3267,0.3267,0.3143,0.3139,0.3136,0,0,0,0,0,0,0,0,0,0,0,0,0,0.3475,0.3546,0.3477,0.3422,0.3415,0.3344,0.3341,0.3339,0.3267,0.3267,0.3267,0.3267,0.3144,0.314,0.3135,0.311,0,0,0.312,0.3118,0,0,0,0,0,0,0,0,0.3479,0.3472,0.3431,0.3425,0.3418,0.3322,0.332,0.3263,0.3268,0.3323,0.3267,0.3267,0.3203,0.3194,0.3169,0.3105,0.3099,0.312,0.3117,0.3115,0.3114,0,0,0,0,0,0,0,0.3484,0.3477,0.3423,0.343,0.3422,0.3361,0.3352,0.3308,0.3266,0.3319,0.3313,0.3299,0.32,0.3173,0.3165,0.3097,0.312,0.3116,0.3113,0.3111,0.3116,0.3119,0,0,0,0,0,0,0.3508,0.3482,0.3428,0.342,0.3449,0.3361,0.335,0.3353,0.3266,0.3253,0.3299,0.3296,0.3182,0.3171,0.3161,0.318,0.3115,0.3111,0.3108,0.3113,0.3117,0.312,0,0,0,0,0,0,0.351,0.3505,0.3433,0.3447,0.3433,0.3361,0.3363,0.335,0.3327,0.3251,0.3238,0.329,0.3181,0.3167,0.3127,0.3173,0.3109,0.3104,0.311,0.3114,0.3118,0.3186,0,0,0,0,0,0,0.3513,0.3507,0.3511,0.3449,0.3434,0.3406,0.3363,0.3348,0.3318,0.3313,0.3239,0.3227,0.318,0.3135,0.3122,0.3165,0.31,0.3106,0.3112,0.3117,0.318,0.3192,0.3202,0,0,0,0,0,0.3516,0.3552,0.3512,0.3505,0.3444,0.3407,0.3394,0.3339,0.3318,0.3316,0.3263,0.3229,0.3164,0.3131,0.3117,0.3159,0.3103,0.311,0.3116,0.3175,0.3189,0.3202,0,0,0,0,0,0,0.3572,0.3545,0.3501,0.352,0.3463,0.3395,0.3393,0.3348,0.3302,0.3301,0.3228,0.3213,0.3209,0.3179,0.3145,0.3188,0.3144,0.3148,0.3194,0.3207,0.3218,0.3238,0.3096,0,0,0,0,0,0.3586,0.3612,0.3545,0.3552,0.3536,0.3459,0.3435,0.3397,0.3348,0.3327,0.327,0.3238,0.3227,0.3208,0.3186,0.3179,0.3187,0.3216,0.3227,0.3236,0.3249,0.3303,0.332,0.3142,0.3142,0.3142,0,0,0.3599,0.3594,0.3598,0.3566,0.3523,0.3474,0.3446,0.3426,0.3396,0.3322,0.328,0.3264,0.3235,0.3239,0.3239,0.3213,0.3295,0.3245,0.3252,0.326,0.3312,0.3329,0.3344,0.3147,0.3146,0.3145,0,0,0.3642,0.3643,0.3662,0.3613,0.3563,0.3515,0.3512,0.3444,0.3439,0.3395,0.3359,0.3368,0.3313,0.3314,0.3308,0.3372,0.3354,0.3384,0.3442,0.3495,0.351,0.3522,0.356,0.3575,0.3387,0.3387,0.3387,0,0.3648,0.3651,0.3654,0.3629,0.3573,0.3533,0.3482,0.3479,0.3403,0.3418,0.3399,0.3382,0.3358,0.3383,0.3418,0.3397,0.3417,0.3381,0.3508,0.352,0.3532,0.3567,0.3584,0.3391,0.339,0.339,0.339,0,0.3665,0.3648,0.366,0.3604,0.3555,0.3525,0.3482,0.349,0.3478,0.346,0.35,0.3479,0.3473,0.3493,0.3468,0.3554,0.3538,0.3513,0.3464,0.3554,0.3586,0.3601,0.3397,0.3395,0.3394,0.3393,0,0,0.3692,0.3677,0.3662,0.3622,0.3531,0.3497,0.3497,0.3485,0.3509,0.351,0.3533,0.357,0.3585,0.3585,0.3578,0.3635,0.3742,0.3619,0.362,0.3641,0.3857,0.3679,0.3679,0.3737,0.374,0.3742,0.3846,0,0.3675,0.3655,0.3625,0.3543,0.3508,0.3468,0.3462,0.3461,0.3482,0.3513,0.3583,0.3592,0.3614,0.3617,0.369,0.3709,0.3787,0.3716,0.378,0.3783,0.3601,0.3692,0.3429,0.3485,0.3861,0.3864,0.3865,0,0.3655,0.3648,0.3593,0.3534,0.3512,0.3456,0.3442,0.3428,0.3499,0.3535,0.3596,0.362,0.3705,0.3706,0.3839,0.3791,0.3852,0.3884,0.3887,0.3707,0.3633,0.3458,0.3498,0.3346,0.3889,0.3887,0.3885,0,0.366,0.3604,0.3574,0.3532,0.3473,0.3462,0.3421,0.3444,0.3448,0.3536,0.3547,0.3663,0.3677,0.3803,0.3864,0.387,0.399,0.3995,0.3907,0.3895,0.3675,0.3637,0.3557,0.413,0.413,0.413,0.413,0,0.3636,0.3598,0.3587,0.3554,0.3509,0.3456,0.3425,0.3445,0.3457,0.3444,0.3544,0.3552,0.3704,0.3769,0.3878,0.3909,0.4006,0.3937,0.3916,0.369,0.3653,0.351,0.3469,0.4134,0.4133,0.4132,0.4131,0,0.3615,0.362,0.3569,0.3527,0.3506,0.3459,0.3367,0.3362,0.3392,0.3371,0.3389,0.3475,0.3557,0.3681,0.384,0.3862,0.3798,0.3944,0.3651,0.3593,0.3345,0.3318,0.3164,0.3105,0.3885,0.3882,0.3878,0,0.361,0.3596,0.3534,0.3491,0.3456,0.3392,0.3345,0.3332,0.3298,0.3306,0.3285,0.3357,0.3381,0.3517,0.3573,0.3698,0.365,0.3516,0.3485,0.3298,0.3257,0.3174,0.3134,0.3245,0.3237,0.3231,0.3225,0,0.3558,0.3542,0.3495,0.3427,0.3359,0.3281,0.3206,0.3178,0.3156,0.3139,0.311,0.3129,0.3197,0.3154,0.3253,0.3315,0.325,0.3381,0.3274,0.2816,0.2639,0.2578,0.3216,0.3166,0.3172,0.3177,0.318,0.3182,0.3493,0.3447,0.3394,0.3302,0.3244,0.3152,0.3053,0.3,0.2924,0.2822,0.2913,0.2829,0.2786,0.2872,0.2899,0.2695,0.2869,0.2622,0.2633,0.2591,0.2421,0.2908,0.2766,0.2769,0.2772,0.2775,0.2777,0,0.3364,0.3323,0.3262,0.314,0.3041,0.3043,0.2935,0.2819,0.2688,0.2613,0.2555,0.2376,0.2263,0.224,0.2065,0.1954,0.1942,0.19,0.1743,0.1777,0.2267,0.2118,0.1718,0.1718,0.1718,0.1718,0.1719,0.1719,0.3285,0.3183,0.3148,0.2954,0.2881,0.2693,0.2612,0.2478,0.2382,0.2119,0.1937,0.1911,0.1797,0.1538,0.1329,0.1322,0.127,0.1128,0.1291,0.161,0.1679,0.1744,0.1594,0.109,0.1089,0.0677,0.0673,0.067]},{"header":{"parameterUnit":"m.s-1","parameterCategory":2,"la1":30.2991,"la2":30.254,"lo1":-89.0895,"lo2":-89.0444,"dy":0.0017,"dx":0.0017,"nx":28,"ny":28,"refTime":"2023-08-18T21:00:00:Z","depth":"0","parameterNumber":3,"parameterNumberName":"V-component_of_CURRENTS"},"data":[0,0,0,0,0,0,0,0,0,0,0,0,0,0,0,0,0,0,0,0,0,0,0,0,0,0,0,0,0,0,0,0,0,0,0,0,0,0,0,0,0,0,0,0,0,0,0,0,0,0,0,0,0,0,0,0,0,0,0.0974,0.0974,0,0.1036,0.1038,0.1039,0.1072,0.1072,0.1071,0.107,0.1101,0.1102,0.1104,0,0,0,0,0,0,0,0,0,0,0,0,0,0.0941,0.0942,0.0974,0.0974,0.0974,0.1036,0.1038,0.104,0.1073,0.1072,0.1071,0.107,0.1101,0.1102,0.1104,0,0,0,0,0,0,0,0,0,0,0,0,0,0.0983,0.0942,0.0974,0.0992,0.0993,0.1036,0.1038,0.104,0.1073,0.1072,0.1071,0.107,0.11,0.1102,0.1104,0.1139,0,0,0.1111,0.1112,0,0,0,0,0,0,0,0,0.098,0.0985,0.0989,0.099,0.0992,0.1038,0.1037,0.1069,0.1073,0.1051,0.107,0.1069,0.1072,0.1077,0.1103,0.1141,0.1142,0.1111,0.1113,0.1114,0.1114,0,0,0,0,0,0,0,0.0977,0.0983,0.1007,0.0989,0.0991,0.1016,0.1021,0.1045,0.1073,0.1053,0.1054,0.1048,0.1074,0.1101,0.1104,0.1143,0.1111,0.1113,0.1115,0.1115,0.122,0.1221,0,0,0,0,0,0,0.0951,0.098,0.1005,0.1008,0.0974,0.1016,0.1023,0.1031,0.1074,0.1077,0.1048,0.1049,0.1098,0.1101,0.1105,0.1152,0.1114,0.1116,0.1117,0.1218,0.122,0.1222,0,0,0,0,0,0,0.095,0.0953,0.1002,0.0988,0.0994,0.1017,0.1027,0.1033,0.105,0.1069,0.1073,0.1057,0.1097,0.1102,0.1132,0.1153,0.1117,0.1119,0.1217,0.1219,0.1221,0.1244,0,0,0,0,0,0,0.095,0.0953,0.0958,0.0986,0.0994,0.1019,0.1027,0.1035,0.1044,0.1046,0.1078,0.108,0.1097,0.1128,0.1134,0.1156,0.112,0.1215,0.1218,0.122,0.1242,0.1247,0.1251,0,0,0,0,0,0.0949,0.0959,0.0959,0.0961,0.0998,0.1018,0.1026,0.1044,0.1046,0.1056,0.1085,0.1079,0.1149,0.1132,0.1138,0.116,0.1213,0.1217,0.122,0.1239,0.1246,0.1251,0,0,0,0,0,0,0.094,0.0963,0.0964,0.0978,0.0988,0.102,0.1034,0.104,0.1076,0.1077,0.1097,0.1103,0.114,0.1148,0.1127,0.12,0.1181,0.1185,0.1193,0.12,0.1204,0.1215,0.1122,0,0,0,0,0,0.0939,0.0963,0.0971,0.0984,0.0988,0.101,0.1021,0.1029,0.1056,0.107,0.1088,0.1119,0.1163,0.1175,0.1207,0.1243,0.1234,0.1262,0.1267,0.1271,0.1285,0.1282,0.1287,0.1232,0.1232,0.1232,0,0,0.0939,0.0954,0.0967,0.0985,0.1001,0.1013,0.1017,0.1031,0.1056,0.1068,0.1109,0.1134,0.1176,0.1224,0.1241,0.1229,0.1283,0.1275,0.1278,0.1291,0.1286,0.1291,0.1295,0.1234,0.1234,0.1234,0,0,0.095,0.0962,0.0983,0.0991,0.1002,0.1017,0.1014,0.1036,0.1063,0.11,0.1126,0.116,0.1209,0.1251,0.128,0.1329,0.1309,0.1337,0.1369,0.1365,0.1369,0.1373,0.1362,0.1365,0.1337,0.1338,0.1338,0,0.0936,0.0969,0.0989,0.1001,0.1005,0.1014,0.1022,0.106,0.109,0.1134,0.111,0.1214,0.1229,0.1318,0.1337,0.134,0.1331,0.134,0.137,0.1373,0.1376,0.1365,0.1367,0.1339,0.1339,0.1339,0.1339,0,0.0962,0.098,0.099,0.1014,0.1024,0.1032,0.1062,0.11,0.1122,0.1162,0.1238,0.1263,0.1328,0.1336,0.1354,0.1405,0.1388,0.1373,0.1349,0.1383,0.1369,0.1371,0.1341,0.1341,0.134,0.134,0,0,0.0931,0.0995,0.0994,0.1015,0.1027,0.1043,0.1099,0.1164,0.1228,0.1254,0.1329,0.1392,0.1405,0.1439,0.1454,0.145,0.1453,0.1423,0.1422,0.1403,0.144,0.1407,0.1406,0.1436,0.1437,0.1438,0.1418,0,0.0931,0.0973,0.0998,0.1029,0.1047,0.1083,0.1141,0.1208,0.1264,0.1343,0.1394,0.1455,0.1447,0.1468,0.1473,0.1472,0.1461,0.146,0.142,0.1419,0.1377,0.1408,0.138,0.1358,0.1419,0.1419,0.142,0,0.0933,0.0966,0.0999,0.1068,0.1078,0.1097,0.1198,0.1249,0.1375,0.1425,0.1497,0.1531,0.1581,0.1531,0.1541,0.154,0.1497,0.1469,0.1467,0.1434,0.1391,0.1337,0.1359,0.1346,0.1422,0.1422,0.1422,0,0.0909,0.0964,0.0999,0.1011,0.1085,0.1125,0.1165,0.1278,0.1344,0.1463,0.1506,0.1587,0.1596,0.1584,0.1552,0.1543,0.1526,0.1503,0.1432,0.1428,0.1397,0.139,0.1395,0.148,0.148,0.148,0.148,0,0.0894,0.0919,0.0998,0.1008,0.1073,0.1116,0.1195,0.1274,0.1373,0.1446,0.1528,0.1573,0.16,0.1606,0.1574,0.1521,0.1544,0.145,0.1427,0.1404,0.1398,0.1379,0.138,0.1479,0.1479,0.148,0.148,0,0.0851,0.0904,0.0946,0.1027,0.1059,0.1095,0.1183,0.1254,0.134,0.1425,0.1453,0.1556,0.1564,0.158,0.1552,0.1526,0.148,0.1449,0.1422,0.1397,0.1324,0.1327,0.1314,0.1356,0.1383,0.1382,0.1381,0,0.0843,0.0861,0.094,0.0976,0.1005,0.1072,0.1133,0.123,0.1292,0.1405,0.1438,0.1484,0.1531,0.1512,0.1484,0.1446,0.1428,0.1366,0.1345,0.1329,0.1316,0.1318,0.1356,0.1308,0.1307,0.1306,0.1305,0,0.0813,0.0833,0.0868,0.0937,0.0992,0.1068,0.1143,0.1186,0.1296,0.1356,0.1419,0.1459,0.1465,0.1442,0.1404,0.137,0.1377,0.1341,0.1336,0.1276,0.1269,0.1294,0.1309,0.1296,0.1297,0.1298,0.1298,0.1299,0.0784,0.0798,0.0846,0.0904,0.0975,0.1054,0.1089,0.1165,0.1241,0.1316,0.1372,0.1415,0.1395,0.1359,0.1329,0.1257,0.1296,0.1211,0.122,0.1227,0.1262,0.1256,0.121,0.121,0.1211,0.1211,0.1211,0,0.0755,0.0776,0.0823,0.0897,0.0953,0.1008,0.1099,0.1121,0.117,0.126,0.1307,0.1325,0.1287,0.1254,0.1167,0.114,0.1178,0.1127,0.1134,0.1186,0.1178,0.117,0.11,0.11,0.11,0.11,0.11,0.11,0.0738,0.0761,0.0784,0.0861,0.0917,0.0968,0.1006,0.1032,0.1091,0.1138,0.1178,0.1243,0.1263,0.1104,0.1046,0.105,0.1108,0.1065,0.1138,0.1119,0.1128,0.1137,0.113,0.1052,0.1052,0.1151,0.1152,0.1152]}],[{"header":{"parameterUnit":"m.s-1","parameterCategory":2,"la1":30.2991,"la2":30.254,"lo1":-89.0895,"lo2":-89.0444,"dy":0.0017,"dx":0.0017,"nx":28,"ny":28,"refTime":"2023-08-18T21:00:00:Z","depth":"2","parameterNumber":2,"parameterNumberName":"U-component_of_CURRENTS"},"data":[0,0,0,0,0,0,0,0,0,0,0,0,0,0,0,0,0,0,0,0,0,0,0,0,0,0,0,0,0,0,0,0,0,0,0,0,0,0,0,0,0,0,0,0,0,0,0,0,0,0,0,0,0,0,0,0,0,0,0.235,0.2353,0,0.233,0.2326,0.2323,0.2443,0.245,0.2458,0.2464,0.2476,0.247,0.2463,0,0,0,0,0,0,0,0,0,0,0,0,0,0.2044,0.2048,0.2349,0.2353,0.2356,0.233,0.2326,0.2322,0.2442,0.2451,0.2459,0.2468,0.2478,0.247,0.2463,0,0,0,0,0,0,0,0,0,0,0,0,0,0.2077,0.205,0.2349,0.2443,0.2455,0.2331,0.2326,0.2321,0.244,0.2451,0.2462,0.2472,0.2481,0.2471,0.2462,0.2186,0,0,0.2432,0.2428,0,0,0,0,0,0,0,0,0.2076,0.2083,0.2426,0.2437,0.245,0.2436,0.2225,0.2292,0.2437,0.2402,0.2465,0.2477,0.2484,0.2475,0.2388,0.2187,0.2188,0.2432,0.2426,0.2422,0.2419,0,0,0,0,0,0,0,0.2074,0.2083,0.23,0.243,0.2445,0.2337,0.2353,0.2232,0.2351,0.2406,0.2425,0.2485,0.2487,0.2397,0.239,0.2188,0.2432,0.2423,0.2417,0.2414,0.2286,0.2288,0,0,0,0,0,0,0.2171,0.2083,0.2301,0.2304,0.2332,0.2339,0.2354,0.2396,0.2353,0.2368,0.2476,0.2491,0.2408,0.2401,0.2392,0.2447,0.2422,0.2413,0.2407,0.2283,0.2286,0.2289,0,0,0,0,0,0,0.2164,0.2189,0.2303,0.2226,0.2239,0.2341,0.238,0.2391,0.2397,0.2413,0.2423,0.2492,0.2416,0.2405,0.2442,0.2436,0.2408,0.24,0.2281,0.2284,0.2288,0.2313,0,0,0,0,0,0,0.2154,0.2185,0.2162,0.2233,0.2249,0.2316,0.2375,0.2384,0.2433,0.2453,0.2425,0.2433,0.2424,0.2458,0.2433,0.2423,0.2392,0.2278,0.2282,0.2286,0.2309,0.2317,0.2324,0,0,0,0,0,0.2142,0.2092,0.216,0.2186,0.2243,0.2321,0.2312,0.239,0.2425,0.2425,0.2469,0.2439,0.247,0.245,0.2421,0.2408,0.2275,0.2281,0.2286,0.2306,0.2316,0.2324,0,0,0,0,0,0,0.1977,0.2106,0.2182,0.2185,0.2302,0.2361,0.2338,0.2395,0.2396,0.2434,0.243,0.2438,0.2478,0.2437,0.2416,0.24,0.2376,0.2376,0.2402,0.241,0.2417,0.2399,0.2384,0,0,0,0,0,0.193,0.1913,0.2089,0.2098,0.2158,0.2241,0.2254,0.235,0.2409,0.2419,0.2418,0.2429,0.2436,0.2438,0.2424,0.2354,0.2297,0.2348,0.2355,0.2361,0.2336,0.2301,0.2301,0.2306,0.2306,0.2306,0,0,0.1875,0.1945,0.194,0.2057,0.2123,0.2133,0.2267,0.2351,0.2363,0.2409,0.2377,0.244,0.2435,0.2433,0.244,0.2415,0.2325,0.2367,0.2372,0.2343,0.2306,0.2305,0.2304,0.231,0.2309,0.2309,0,0,0.1746,0.1835,0.1775,0.1893,0.2058,0.2072,0.2126,0.2239,0.231,0.2336,0.2397,0.2485,0.2427,0.2455,0.2452,0.2466,0.2378,0.2475,0.2459,0.2427,0.2424,0.2421,0.2311,0.2298,0.2461,0.2461,0.2461,0,0.1665,0.1701,0.1778,0.1815,0.193,0.2051,0.21,0.2096,0.2211,0.2255,0.2371,0.2377,0.2428,0.2396,0.2489,0.2472,0.2422,0.2418,0.243,0.2426,0.2423,0.231,0.2296,0.2463,0.2463,0.2463,0.2463,0,0.1551,0.1619,0.163,0.1679,0.1736,0.1858,0.1963,0.1973,0.2073,0.2118,0.2216,0.2318,0.2345,0.2391,0.2464,0.2459,0.2418,0.2451,0.2392,0.2423,0.2303,0.2287,0.2466,0.2465,0.2465,0.2464,0,0,0.1395,0.1508,0.1544,0.1592,0.1774,0.1784,0.1794,0.1854,0.1816,0.1965,0.1988,0.2126,0.2238,0.2252,0.2346,0.2368,0.2364,0.2432,0.2429,0.2291,0.2232,0.2079,0.2045,0.2407,0.2405,0.2404,0.2142,0,0.1358,0.1329,0.1451,0.1469,0.1508,0.1685,0.164,0.1687,0.177,0.1764,0.1944,0.1989,0.2152,0.2241,0.2286,0.2379,0.2331,0.2427,0.2248,0.224,0.2078,0.2026,0.2011,0.1767,0.2126,0.2124,0.2122,0,0.1331,0.1302,0.1321,0.1406,0.1445,0.1478,0.15,0.1511,0.1535,0.1613,0.1709,0.1809,0.1922,0.2076,0.2122,0.2184,0.2207,0.2243,0.2233,0.2065,0.2059,0.1807,0.1724,0.2094,0.2097,0.2099,0.21,0,0.1211,0.1284,0.1267,0.1347,0.1365,0.1472,0.1517,0.1532,0.153,0.1583,0.1588,0.1657,0.1788,0.1822,0.2,0.2057,0.2005,0.2059,0.1867,0.1853,0.1785,0.1767,0.1989,0.1989,0.199,0.199,0.1991,0,0.1232,0.1245,0.1241,0.128,0.1292,0.1395,0.1425,0.147,0.1484,0.1458,0.1571,0.1583,0.176,0.1787,0.1876,0.1823,0.1881,0.1813,0.1772,0.1791,0.1777,0.2042,0.2052,0.198,0.1983,0.1985,0.1986,0,0.1201,0.1194,0.1188,0.1224,0.1296,0.1336,0.1488,0.1411,0.1458,0.1461,0.1497,0.1543,0.1596,0.1642,0.17,0.1659,0.162,0.1562,0.1537,0.1497,0.149,0.1506,0.1246,0.1239,0.1232,0.1227,0.1222,0,0.1158,0.1139,0.1182,0.1201,0.1326,0.1396,0.1431,0.1475,0.1434,0.1449,0.1446,0.1479,0.1495,0.1415,0.1373,0.1268,0.1437,0.1126,0.1224,0.1425,0.1413,0.1438,0.1462,0.1132,0.1127,0.1123,0.1119,0,0.1102,0.1146,0.1137,0.1188,0.1287,0.1281,0.1422,0.1351,0.1357,0.1342,0.1381,0.1404,0.1325,0.1248,0.1063,0.1021,0.1143,0.1028,0.125,0.1324,0.1297,0.1292,0.1323,0.1084,0.1087,0.109,0.1092,0.1093,0.1114,0.1099,0.1113,0.1187,0.1232,0.1257,0.1295,0.1278,0.1245,0.1244,0.1331,0.1327,0.1156,0.0881,0.0815,0.0761,0.0802,0.0791,0.0813,0.0837,0.0873,0.0836,0.0538,0.0538,0.0539,0.0539,0.0539,0,0.1083,0.1098,0.1105,0.1172,0.1185,0.1285,0.1277,0.1253,0.125,0.1185,0.1244,0.1002,0.0884,0.0794,0.0655,0.0506,0.0599,0.0502,0.0705,0.0736,0.0765,0.081,0.0451,0.0451,0.0451,0.0451,0,0,0.1094,0.1073,0.1066,0.1118,0.1204,0.1266,0.1289,0.1241,0.1175,0.1048,0.0978,0.0935,0.08,0.063,0.0533,0.055,0.0669,0.0517,0.0588,0.0869,0.09,0.0915,0.1012,0,0,0,0,0]},{"header":{"parameterUnit":"m.s-1","parameterCategory":2,"la1":30.2991,"la2":30.254,"lo1":-89.0895,"lo2":-89.0444,"dy":0.0017,"dx":0.0017,"nx":28,"ny":28,"refTime":"2023-08-18T21:00:00:Z","depth":"2","parameterNumber":3,"parameterNumberName":"V-component_of_CURRENTS"},"data":[0,0,0,0,0,0,0,0,0,0,0,0,0,0,0,0,0,0,0,0,0,0,0,0,0,0,0,0,0,0,0,0,0,0,0,0,0,0,0,0,0,0,0,0,0,0,0,0,0,0,0,0,0,0,0,0,0,0,-0.0038,-0.0034,0,0.0161,0.0162,0.0163,0.0332,0.0335,0.0339,0.0342,0.0455,0.0455,0.0455,0,0,0,0,0,0,0,0,0,0,0,0,0,-0.0268,-0.0267,-0.0038,-0.0034,-0.003,0.0161,0.0162,0.0163,0.0331,0.0336,0.034,0.0344,0.0455,0.0455,0.0455,0,0,0,0,0,0,0,0,0,0,0,0,0,-0.0145,-0.0266,-0.0039,0.009,0.0104,0.0161,0.0162,0.0163,0.033,0.0336,0.0341,0.0346,0.0455,0.0455,0.0455,0.035,0,0,0.0454,0.0454,0,0,0,0,0,0,0,0,-0.0153,-0.0139,0.0067,0.0081,0.0098,0.0242,0.0124,0.0227,0.0329,0.0226,0.0342,0.0348,0.0383,0.0389,0.0392,0.0355,0.036,0.0454,0.0454,0.0454,0.0454,0,0,0,0,0,0,0,-0.0161,-0.0147,0.0024,0.0071,0.009,0.014,0.0161,0.0143,0.0259,0.0236,0.0253,0.03,0.0389,0.0392,0.0396,0.0362,0.0454,0.0454,0.0454,0.0453,0.0479,0.048,0,0,0,0,0,0,-0.0157,-0.0155,0.0018,0.0031,0.0002,0.0141,0.0164,0.0176,0.0261,0.0285,0.0296,0.0308,0.039,0.0396,0.0401,0.0453,0.0454,0.0453,0.0453,0.0478,0.0479,0.048,0,0,0,0,0,0,-0.0164,-0.0146,0.001,-0.0041,-0.0015,0.0141,0.0153,0.0178,0.0226,0.0311,0.0331,0.0327,0.0394,0.0401,0.046,0.0453,0.0453,0.0453,0.0477,0.0479,0.048,0.0448,0,0,0,0,0,0,-0.0173,-0.0151,-0.0162,-0.0043,-0.0012,0.0099,0.0151,0.0179,0.0254,0.0271,0.0341,0.0356,0.0399,0.0461,0.046,0.0453,0.0453,0.0476,0.0478,0.0479,0.0448,0.0448,0.0448,0,0,0,0,0,-0.0183,-0.0197,-0.0166,-0.0143,-0.0027,0.0102,0.0121,0.0238,0.025,0.029,0.0347,0.0356,0.0471,0.0461,0.046,0.0452,0.0476,0.0477,0.0479,0.0448,0.0448,0.0448,0,0,0,0,0,0,-0.0272,-0.0176,-0.0139,-0.0116,0.0009,0.0139,0.0163,0.0231,0.0295,0.031,0.0358,0.0377,0.0426,0.044,0.0428,0.047,0.0475,0.0476,0.0451,0.0451,0.0451,0.0452,0.0453,0,0,0,0,0,-0.031,-0.0306,-0.0168,-0.0138,-0.0102,0.0015,0.0068,0.0173,0.0261,0.0295,0.0342,0.0385,0.0415,0.0442,0.0476,0.0476,0.0471,0.0476,0.0476,0.0476,0.048,0.0447,0.0443,0.0487,0.0487,0.0487,0,0,-0.0323,-0.0274,-0.0263,-0.0158,-0.0089,-0.0006,0.0057,0.0167,0.0238,0.0286,0.0345,0.0381,0.0418,0.0456,0.0475,0.0477,0.0467,0.0478,0.0478,0.0482,0.0448,0.0444,0.0439,0.0488,0.0488,0.0487,0,0,-0.0328,-0.0325,-0.0313,-0.0208,-0.0067,-0.0014,0.0021,0.0159,0.0208,0.028,0.0332,0.0374,0.0411,0.0454,0.0468,0.0474,0.0466,0.0485,0.0481,0.0448,0.0444,0.0439,0.0441,0.0437,0.0485,0.0485,0.0485,0,-0.0341,-0.0295,-0.0274,-0.0191,-0.0099,-0.0023,0.0073,0.0108,0.0264,0.0291,0.0311,0.0374,0.0403,0.0439,0.0465,0.0468,0.0466,0.0472,0.0444,0.044,0.0436,0.0439,0.0435,0.0484,0.0484,0.0484,0.0484,0,-0.0284,-0.0234,-0.0213,-0.0121,-0.0045,0.0068,0.0149,0.0184,0.021,0.0278,0.0327,0.0362,0.0414,0.0414,0.0441,0.044,0.0454,0.0442,0.0434,0.0429,0.0434,0.043,0.0482,0.0482,0.0483,0.0483,0,0,-0.0323,-0.0202,-0.0181,-0.0122,0.003,0.0095,0.014,0.022,0.0246,0.031,0.0357,0.0377,0.0402,0.0422,0.0447,0.042,0.039,0.0425,0.0424,0.0411,0.0346,0.042,0.0423,0.0368,0.0367,0.0366,0.0364,0,-0.0263,-0.0143,-0.008,0.0043,0.0101,0.0185,0.0216,0.0294,0.0325,0.037,0.0372,0.0422,0.04,0.0434,0.0399,0.043,0.0378,0.0394,0.0369,0.0369,0.042,0.042,0.0339,0.0336,0.0361,0.036,0.036,0,-0.0216,-0.0143,-0.002,0.0095,0.0127,0.0205,0.0262,0.0324,0.0376,0.0405,0.0436,0.0468,0.0487,0.0438,0.0413,0.0431,0.0375,0.0353,0.0352,0.0429,0.0435,0.0346,0.0329,0.0354,0.0354,0.0354,0.0355,0,-0.0284,-0.0112,-0.0038,0.0041,0.0174,0.022,0.0272,0.0339,0.0375,0.0443,0.0489,0.0505,0.0546,0.0468,0.0464,0.0431,0.0428,0.0371,0.0362,0.0368,0.0301,0.0304,0.0272,0.0272,0.0272,0.0272,0.0272,0,-0.0252,-0.0186,-0.0061,0.0005,0.0085,0.0192,0.0258,0.031,0.0393,0.0464,0.0508,0.0572,0.0548,0.057,0.0493,0.0472,0.0443,0.037,0.0369,0.0294,0.0296,0.0311,0.0315,0.0272,0.0272,0.0272,0.0272,0,-0.0323,-0.0232,-0.0144,0.0004,0.0057,0.0109,0.0256,0.0301,0.0382,0.0483,0.0513,0.0631,0.0674,0.0649,0.0592,0.0545,0.0488,0.0455,0.0407,0.0401,0.0429,0.0432,0.0431,0.0433,0.0436,0.0437,0.0439,0,-0.0329,-0.0298,-0.0166,-0.0105,-0.0018,0.008,0.0155,0.0271,0.0347,0.0524,0.0588,0.0686,0.0766,0.077,0.068,0.0581,0.0538,0.0469,0.0367,0.0444,0.0443,0.0443,0.0443,0.0259,0.0259,0.0259,0.0259,0,-0.0327,-0.0312,-0.0247,-0.0142,-0.004,0.0067,0.0205,0.0258,0.0413,0.0525,0.0711,0.0794,0.0815,0.0748,0.067,0.0582,0.0494,0.0467,0.0539,0.0261,0.029,0.0287,0.0291,0.0258,0.0258,0.0258,0.0259,0.0259,-0.0334,-0.0305,-0.0237,-0.0143,-0.0039,0.0096,0.0187,0.033,0.0476,0.0674,0.0769,0.088,0.0744,0.0629,0.0551,0.0493,0.048,0.0395,0.0391,0.0387,0.0397,0.0431,0.0429,0.043,0.0431,0.0431,0.0432,0,-0.0292,-0.0274,-0.0208,-0.008,0.0021,0.0092,0.0257,0.0356,0.055,0.0689,0.0845,0.0729,0.0647,0.054,0.0424,0.0364,0.0308,0.0353,0.0244,0.0245,0.0246,0.0244,0.0237,0.0237,0.0237,0.0237,0,0,-0.0262,-0.0217,-0.0192,-0.0025,0.0069,0.0239,0.0342,0.0474,0.0582,0.0731,0.0782,0.0778,0.0627,0.0469,0.0351,0.0317,0.0314,0.0314,0.0466,0.0349,0.0352,0.0255,0.0254,0,0,0,0,0]}],[{"header":{"parameterUnit":"m.s-1","parameterCategory":2,"la1":30.2991,"la2":30.254,"lo1":-89.0895,"lo2":-89.0444,"dy":0.0017,"dx":0.0017,"nx":28,"ny":28,"refTime":"2023-08-18T21:00:00:Z","depth":"4","parameterNumber":2,"parameterNumberName":"U-component_of_CURRENTS"},"data":[0,0,0,0,0,0,0,0,0,0,0,0,0,0,0,0,0,0,0,0,0,0,0,0,0,0,0,0,0,0,0,0,0,0,0,0,0,0,0,0,0,0,0,0,0,0,0,0,0,0,0,0,0,0,0,0,0,0,-0.0571,-0.0572,0,-0.0663,-0.0664,-0.0666,-0.0805,-0.0807,-0.0809,-0.0812,-0.0741,-0.0737,-0.0732,0,0,0,0,0,0,0,0,0,0,0,0,0,-0.0522,-0.0522,-0.0571,-0.0572,-0.0573,-0.0663,-0.0664,-0.0666,-0.0804,-0.0807,-0.081,-0.0813,-0.0742,-0.0737,-0.0732,0,0,0,0,0,0,0,0,0,0,0,0,0,-0.0572,-0.0522,-0.0571,-0.0653,-0.0661,-0.0663,-0.0665,-0.0666,-0.0804,-0.0807,-0.0811,-0.0814,-0.0743,-0.0737,-0.0731,-0.0622,0,0,-0.0713,-0.071,0,0,0,0,0,0,0,0,-0.0569,-0.0574,-0.064,-0.0647,-0.0656,-0.0725,-0.0621,-0.0643,-0.0803,-0.0751,-0.0812,-0.0816,-0.0717,-0.0713,-0.0726,-0.0619,-0.0616,-0.0712,-0.0708,-0.0706,-0.0704,0,0,0,0,0,0,0,-0.0566,-0.0571,-0.0609,-0.064,-0.065,-0.0686,-0.0698,-0.0627,-0.071,-0.0755,-0.0765,-0.0773,-0.0721,-0.0732,-0.0725,-0.0615,-0.0712,-0.0707,-0.0703,-0.0701,-0.0413,-0.0409,0,0,0,0,0,0,-0.0547,-0.0567,-0.0606,-0.0612,-0.0619,-0.0684,-0.0697,-0.07,-0.0715,-0.0722,-0.077,-0.0779,-0.0741,-0.0732,-0.0723,-0.0751,-0.0706,-0.07,-0.0696,-0.0417,-0.0412,-0.0408,0,0,0,0,0,0,-0.0546,-0.055,-0.0602,-0.0591,-0.0601,-0.0681,-0.0684,-0.07,-0.0781,-0.0728,-0.0732,-0.0842,-0.0743,-0.0732,-0.0668,-0.0743,-0.0697,-0.0692,-0.0421,-0.0415,-0.041,-0.0704,0,0,0,0,0,0,-0.0544,-0.0548,-0.0565,-0.0589,-0.06,-0.0631,-0.0681,-0.0699,-0.0775,-0.079,-0.0787,-0.0782,-0.0745,-0.0677,-0.0661,-0.0733,-0.0687,-0.0426,-0.0419,-0.0412,-0.0699,-0.0708,-0.0717,0,0,0,0,0,-0.0542,-0.0543,-0.0565,-0.0571,-0.0613,-0.0631,-0.064,-0.071,-0.0775,-0.08,-0.0776,-0.0786,-0.0618,-0.0669,-0.0652,-0.0725,-0.043,-0.0421,-0.0412,-0.0695,-0.0707,-0.0716,0,0,0,0,0,0,-0.0535,-0.0557,-0.0583,-0.0594,-0.0623,-0.0655,-0.07,-0.0739,-0.075,-0.0788,-0.0743,-0.0731,-0.0699,-0.0616,-0.0673,-0.0592,-0.0521,-0.0508,-0.0741,-0.0751,-0.076,-0.0756,-0.0682,0,0,0,0,0,-0.0533,-0.0544,-0.0569,-0.0583,-0.0613,-0.0668,-0.0698,-0.0747,-0.075,-0.077,-0.0756,-0.07,-0.063,-0.0624,-0.0533,-0.0502,-0.0472,-0.0514,-0.0524,-0.0533,-0.05,-0.0553,-0.057,-0.0378,-0.0378,-0.0379,0,0,-0.0535,-0.0548,-0.0558,-0.0583,-0.0632,-0.0663,-0.07,-0.0769,-0.0798,-0.0745,-0.0784,-0.0731,-0.0611,-0.0583,-0.0562,-0.055,-0.0566,-0.0522,-0.0534,-0.0493,-0.0546,-0.0567,-0.0586,-0.0372,-0.0373,-0.0374,0,0,-0.054,-0.0567,-0.0591,-0.0619,-0.0687,-0.0703,-0.0734,-0.0794,-0.0841,-0.0824,-0.0802,-0.0802,-0.0677,-0.0666,-0.0622,-0.0602,-0.0596,-0.0553,-0.0646,-0.0703,-0.0724,-0.0741,-0.0759,-0.0776,-0.0586,-0.0586,-0.0587,0,-0.0556,-0.0574,-0.06,-0.0637,-0.0665,-0.0728,-0.0766,-0.08,-0.0825,-0.084,-0.0851,-0.0763,-0.0723,-0.0712,-0.0705,-0.065,-0.0635,-0.0665,-0.0736,-0.0751,-0.0765,-0.0778,-0.0793,-0.0599,-0.0598,-0.0596,-0.0595,0,-0.0569,-0.061,-0.0638,-0.069,-0.071,-0.0763,-0.0799,-0.0836,-0.0884,-0.0909,-0.0924,-0.0891,-0.0823,-0.0848,-0.077,-0.0831,-0.0776,-0.0753,-0.0765,-0.0806,-0.0811,-0.0823,-0.0618,-0.0613,-0.0609,-0.0606,0,0,-0.0562,-0.0633,-0.0651,-0.0684,-0.0755,-0.0764,-0.0809,-0.0843,-0.0876,-0.0939,-0.0973,-0.0953,-0.0967,-0.0905,-0.0889,-0.0974,-0.1103,-0.0903,-0.09,-0.1015,-0.1197,-0.1029,-0.1024,-0.1119,-0.1121,-0.1123,-0.1182,0,-0.0589,-0.0639,-0.0663,-0.0718,-0.076,-0.08,-0.081,-0.085,-0.0883,-0.0918,-0.0988,-0.0973,-0.098,-0.0968,-0.1064,-0.1051,-0.1132,-0.1084,-0.1047,-0.1044,-0.0974,-0.1032,-0.113,-0.1189,-0.1192,-0.1193,-0.1195,0,-0.0609,-0.0637,-0.0687,-0.0729,-0.0751,-0.0759,-0.0784,-0.0802,-0.0859,-0.0886,-0.0947,-0.0959,-0.1047,-0.1049,-0.1167,-0.113,-0.1147,-0.1194,-0.1198,-0.0932,-0.0895,-0.1109,-0.1213,-0.1212,-0.121,-0.1209,-0.1208,0,-0.0586,-0.0654,-0.0681,-0.0706,-0.0755,-0.0755,-0.0752,-0.079,-0.0809,-0.0849,-0.0878,-0.0976,-0.1011,-0.1098,-0.1156,-0.1153,-0.1294,-0.1303,-0.1188,-0.1176,-0.1194,-0.1173,-0.1385,-0.1384,-0.1384,-0.1384,-0.1384,0,-0.0591,-0.0639,-0.0663,-0.0691,-0.0684,-0.0715,-0.0711,-0.0719,-0.0759,-0.0806,-0.0844,-0.0905,-0.1024,-0.1111,-0.1168,-0.1195,-0.1299,-0.1187,-0.1182,-0.1306,-0.1297,-0.1205,-0.1183,-0.1386,-0.1386,-0.1385,-0.1385,0,-0.0592,-0.0626,-0.0669,-0.0695,-0.0684,-0.0667,-0.066,-0.0671,-0.0695,-0.0756,-0.0764,-0.0857,-0.0926,-0.1036,-0.1164,-0.1176,-0.1239,-0.1217,-0.1319,-0.132,-0.1083,-0.1074,-0.1099,-0.1094,-0.1089,-0.1086,-0.1082,0,-0.0584,-0.061,-0.0649,-0.0631,-0.064,-0.0612,-0.0604,-0.0623,-0.0661,-0.0746,-0.0798,-0.084,-0.0899,-0.0932,-0.1054,-0.1119,-0.1114,-0.1142,-0.1128,-0.1062,-0.1056,-0.1054,-0.1052,-0.1075,-0.1074,-0.1073,-0.1072,0,-0.0575,-0.0615,-0.0646,-0.0608,-0.0589,-0.0575,-0.0576,-0.0568,-0.0636,-0.0713,-0.0732,-0.0738,-0.0793,-0.0844,-0.086,-0.094,-0.1132,-0.1095,-0.1105,-0.1092,-0.1033,-0.1031,-0.1034,-0.1056,-0.1058,-0.106,-0.1061,0,-0.056,-0.058,-0.0609,-0.0572,-0.0552,-0.0517,-0.0505,-0.052,-0.0532,-0.0634,-0.0659,-0.0701,-0.078,-0.0754,-0.0822,-0.0813,-0.0813,-0.0825,-0.0849,-0.0868,-0.0767,-0.0656,-0.0555,0,0,0,0,0,-0.0516,-0.0555,-0.0543,-0.0498,-0.0483,-0.048,-0.0502,-0.0515,-0.0597,-0.0571,-0.0586,-0.0615,-0.0607,-0.0648,-0.0592,-0.0758,-0.0844,-0.0698,-0.0875,-0.0968,-0.0987,-0.089,0,0,0,0,0,0,-0.049,-0.052,-0.0553,-0.0461,-0.0413,-0.0396,-0.0404,-0.045,-0.0426,-0.0504,-0.0478,-0.0581,-0.0569,-0.0609,-0.0579,-0.0598,-0.0695,-0.0748,-0.0746,-0.0958,-0.0975,-0.0989,-0.0896,0,0,0,0,0]},{"header":{"parameterUnit":"m.s-1","parameterCategory":2,"la1":30.2991,"la2":30.254,"lo1":-89.0895,"lo2":-89.0444,"dy":0.0017,"dx":0.0017,"nx":28,"ny":28,"refTime":"2023-08-18T21:00:00:Z","depth":"4","parameterNumber":3,"parameterNumberName":"V-component_of_CURRENTS"},"data":[0,0,0,0,0,0,0,0,0,0,0,0,0,0,0,0,0,0,0,0,0,0,0,0,0,0,0,0,0,0,0,0,0,0,0,0,0,0,0,0,0,0,0,0,0,0,0,0,0,0,0,0,0,0,0,0,0,0,0.0277,0.0277,0,0.0277,0.0277,0.0277,0.0222,0.0221,0.022,0.0218,0.0012,0.0008,0.0004,0,0,0,0,0,0,0,0,0,0,0,0,0,0.0281,0.0281,0.0277,0.0277,0.0277,0.0277,0.0277,0.0277,0.0223,0.0221,0.0219,0.0218,0.0014,0.0009,0.0004,0,0,0,0,0,0,0,0,0,0,0,0,0,0.0279,0.0281,0.0277,0.0251,0.0248,0.0277,0.0277,0.0277,0.0223,0.0221,0.0219,0.0217,0.0015,0.0009,0.0003,0.0005,0,0,-0.0016,-0.0019,0,0,0,0,0,0,0,0,0.0279,0.0279,0.0254,0.0252,0.025,0.0248,0.0203,0.0176,0.0223,0.0232,0.0218,0.0216,0.0074,0.0063,0.0069,-0.0005,-0.0014,-0.0017,-0.0021,-0.0024,-0.0025,0,0,0,0,0,0,0,0.0279,0.0279,0.0276,0.0255,0.0252,0.0257,0.0253,0.0199,0.016,0.0231,0.0227,0.0229,0.0071,0.0076,0.0063,-0.0017,-0.0017,-0.0022,-0.0026,-0.0029,-0.0115,-0.0113,0,0,0,0,0,0,0.0281,0.0279,0.0276,0.0276,0.0261,0.0258,0.0255,0.025,0.0165,0.0152,0.0231,0.0227,0.0088,0.0071,0.0056,0.0006,-0.0023,-0.0029,-0.0033,-0.0116,-0.0114,-0.0113,0,0,0,0,0,0,0.0281,0.028,0.0276,0.0279,0.0278,0.026,0.0256,0.0251,0.0252,0.0167,0.015,0.0235,0.0085,0.0064,-0.0046,-0.0001,-0.0032,-0.0038,-0.0118,-0.0116,-0.0114,-0.0064,0,0,0,0,0,0,0.0281,0.028,0.0296,0.0279,0.0278,0.0288,0.0258,0.0253,0.0257,0.0251,0.0165,0.0145,0.0082,-0.0036,-0.0052,-0.001,-0.0043,-0.012,-0.0117,-0.0114,-0.0067,-0.006,-0.0054,0,0,0,0,0,0.0281,0.0292,0.0296,0.0297,0.0294,0.0289,0.0289,0.0269,0.0259,0.0262,0.0165,0.0147,-0.0026,-0.0044,-0.0062,-0.002,-0.0121,-0.0118,-0.0115,-0.007,-0.0062,-0.0054,0,0,0,0,0,0,0.0297,0.0288,0.0291,0.0299,0.0298,0.0279,0.0298,0.028,0.022,0.0208,0.0117,0.0088,0.0023,-0.0006,-0.0022,-0.0028,-0.0055,-0.0055,-0.0014,-0.0007,-0.0,0.0012,-0.0048,0,0,0,0,0,0.0314,0.0319,0.0312,0.0321,0.0333,0.0324,0.0328,0.0309,0.0253,0.0229,0.0157,0.0094,0.0033,-0.0002,-0.0062,-0.009,-0.0083,-0.0055,-0.0048,-0.0043,-0.004,0.0016,0.0029,-0.0102,-0.0102,-0.0102,0,0,0.0325,0.032,0.0326,0.0327,0.0338,0.0336,0.032,0.0329,0.0307,0.0212,0.0152,0.0096,0.0025,-0.0018,-0.004,-0.0044,-0.0004,-0.0038,-0.0034,-0.0035,0.0021,0.0034,0.0045,-0.0099,-0.01,-0.01,0,0,0.0332,0.0353,0.036,0.0362,0.0373,0.0364,0.0367,0.0348,0.0329,0.0262,0.0198,0.0168,0.0061,0.0041,0.0011,0.0032,0.0019,0.0026,0.0074,0.0129,0.0141,0.015,0.0164,0.0174,0.0044,0.0044,0.0044,0,0.0344,0.034,0.0362,0.0365,0.0352,0.0374,0.0355,0.036,0.0292,0.0253,0.0245,0.0145,0.0107,0.0068,0.0076,0.0053,0.0046,0.004,0.0138,0.0148,0.0158,0.0169,0.018,0.0047,0.0046,0.0046,0.0046,0,0.0346,0.0348,0.0359,0.0358,0.0353,0.035,0.0346,0.0329,0.0309,0.0288,0.0244,0.0214,0.0146,0.0176,0.0116,0.0168,0.0128,0.0129,0.0116,0.0174,0.0182,0.0192,0.0051,0.005,0.0049,0.0048,0,0,0.0325,0.035,0.0348,0.0326,0.0337,0.0313,0.0303,0.0265,0.0224,0.0246,0.0187,0.0198,0.0198,0.017,0.0156,0.0238,0.0314,0.0206,0.0208,0.0215,0.0388,0.0264,0.0263,0.0313,0.0316,0.0318,0.0362,0,0.0306,0.0292,0.0299,0.0258,0.0246,0.024,0.0205,0.0179,0.0162,0.0119,0.0183,0.0135,0.0195,0.016,0.0255,0.0268,0.0344,0.0298,0.0334,0.0335,0.0216,0.0274,0.0326,0.037,0.0372,0.0374,0.0375,0,0.0282,0.0268,0.0237,0.0165,0.0155,0.0133,0.0047,0.0023,0.0008,-0.001,0.002,0.0025,0.0115,0.017,0.0321,0.0271,0.033,0.0395,0.0398,0.0271,0.0232,0.0305,0.0395,0.0393,0.0392,0.039,0.0389,0,0.0224,0.0194,0.0155,0.0145,0.0102,0.0055,0.0019,-0.0018,-0.0055,-0.0073,-0.0098,-0.0016,0.0019,0.0154,0.0282,0.0283,0.0443,0.046,0.042,0.0411,0.0486,0.0475,0.0587,0.0587,0.0586,0.0586,0.0586,0,0.0171,0.0137,0.013,0.011,0.0024,0.0003,-0.0082,-0.0117,-0.0149,-0.019,-0.0148,-0.0147,0.0021,0.0111,0.0246,0.0352,0.0422,0.0431,0.0424,0.0502,0.0493,0.0492,0.048,0.0588,0.0588,0.0587,0.0587,0,0.0124,0.0136,0.0081,0.0028,0.0011,-0.0051,-0.012,-0.0189,-0.02,-0.0247,-0.0252,-0.0229,-0.0142,0.0011,0.0195,0.028,0.0412,0.043,0.0469,0.0462,0.0348,0.0339,0.0388,0.0384,0.0381,0.0378,0.0376,0,0.0098,0.0082,0.0033,-0.0005,-0.0022,-0.0093,-0.0154,-0.0199,-0.0255,-0.0285,-0.0319,-0.0285,-0.0254,-0.007,0.0076,0.0272,0.0309,0.0367,0.0407,0.0344,0.0333,0.0329,0.0324,0.0371,0.037,0.0369,0.0368,0,0.0035,0.0039,-0.0009,-0.0059,-0.012,-0.0208,-0.0283,-0.0296,-0.0351,-0.0363,-0.0373,-0.0319,-0.0268,-0.0128,-0.0015,0.0152,0.0331,0.0335,0.0344,0.0382,0.0324,0.0315,0.0314,0.0357,0.0359,0.036,0.0361,0,-0.0016,-0.0063,-0.0098,-0.0143,-0.0215,-0.0292,-0.0322,-0.038,-0.0415,-0.0414,-0.0417,-0.0347,-0.0308,-0.0196,-0.0059,0.004,0.0081,0.0161,0.018,0.0194,0.0116,0.0013,-0.005,0,0,0,0,0,-0.0075,-0.0119,-0.0184,-0.0246,-0.0307,-0.0335,-0.0411,-0.0433,-0.0428,-0.0444,-0.0425,-0.0377,-0.0262,-0.0217,-0.0138,-0.0123,0.0094,-0.003,0.0197,0.0296,0.0309,0.0238,0,0,0,0,0,0,-0.0128,-0.0186,-0.0202,-0.0293,-0.0329,-0.0424,-0.045,-0.0462,-0.0462,-0.0433,-0.0372,-0.0354,-0.0242,-0.0295,-0.0131,-0.011,0.0044,0.002,0.0021,0.0288,0.03,0.031,0.0243,0,0,0,0,0]}]]